Tracking 19706 objects as of 16-Jun-2019
HD Live streaming from Space Station
objects crossing your sky now

LEMUR 2 TOMHENDERSON

Track LEMUR 2 TOMHENDERSON now!
10-day predictions
LEMUR 2 TOMHENDERSON is classified as:


NORAD ID: 43561
Int'l Code: 2018-046H
Perigee: 479.0 km
Apogee: 491.2 km
Inclination: 51.6 °
Period: 94.2 minutes
Semi major axis: 6856 km
RCS: Unknown
Launch date: May 21, 2018
Source: United States (US)
Launch site: WALLOPS ISLAND (WLPIS)
aabbcc
Your satellite tracking list
Your tracking list is empty




NASA's NSSDC Master Catalog

Two Line Element Set (TLE):
1 43561U 18046H   19167.22037886  .00000982  00000-0  46587-4 0  9991
2 43561  51.6429  67.6328 0008832  76.9380 283.2585 15.29281727 50747
Source of the keplerian elements: AFSPC